Location: Chandrammap?lem
(16.9200°N, 81.0051°E)
Time: 09:11:24
(UTC+00:00)

Cosmos 2369 Rocket - Pass Details

Date: 19 September 2025
Orbit: 826 x 853 km, 71.0° (Epoch: 12 December)

Event Time Altitude Azimuth Distance (km) Brightness Sun altitude
Rises 13:38:16 0° 321° (NW) 3,371 6.1 -16.0°
Reaches altitude 10° 13:41:13 10° 306° (NW) 2,441 5.5 -16.7°
Maximum altitude 13:45:22 21° 258° (WSW) 1,775 4.7 -17.7°
Drops below altitude 10° 13:49:32 10° 209° (SSW) 2,452 4.9 -18.7°
Sets 13:52:32 0° 194° (SSW) 3,390 5.4 -19.4°
